Regional Weather Roundup
Issued by NWS

Home | Current Version | Previous Version | Text Only | Print | Product List | Glossary On
Versions: 1 2 3 4 5 6 7 8 9 10 11 12 13 14 15 16 17 18 19 20 21 22 23 24 25 26 27 28 29 30 31 32 33 34 35 36 37 38 39 40 41 42 43 44 45 46 47 48 49 50
000
ASUS44 KLUB 250401
RWRTX
WEST TEXAS WEATHER ROUNDUP
NATIONAL WEATHER SERVICE LUBBOCK TX
1100 PM CDT THU APR 24 2014

NOTE: "FAIR" INDICATES FEW OR NO CLOUDS BELOW 12,000 FEET WITH NO
SIGNIFICANT WEATHER AND/OR OBSTRUCTIONS TO VISIBILITY.

TXZ004-006>008-010-012-014-016-OKZ002-250500-
TEXAS PANHANDLE/OKLAHOMA PANHANDLE

CITY           SKY/WX    TMP DP  RH WIND       PRES   REMARKS
AMARILLO       PTCLDY    58  15  18 SE13      29.98R
BORGER         CLEAR     64  20  18 SE8       29.96R
DALHART        CLEAR     56  19  23 SE12      29.97R
GUYMON         CLEAR     53  23  31 S6        29.93S
$$

TXZ026-029-035-045-048-250500-
SOUTHERN PANHANDLE/SOUTH PLAINS/ROLLING PLAINS

CITY           SKY/WX    TMP DP  RH WIND       PRES   REMARKS
CHILDRESS      MOCLDY    63  37  38 E7        29.97R
SEMINOLE       MOCLDY    62  30  29 SE7       30.01S
LUBBOCK        MOCLDY    59  24  26 SE8       29.99R
$$

TXZ052-054-060>062-072-078-127-140-154-169-250500-
PERMIAN BASIN/CONCHO VALLEY/BIG COUNTRY/EDWARDS PLATEAU

CITY           SKY/WX    TMP DP  RH WIND       PRES   REMARKS
ABILENE        CLEAR     65  35  33 E9        29.97R
BROWNWOOD      PTCLDY    59  39  47 NE3       29.97R
JUNCTION       CLEAR     69  33  26 CALM      29.96R
MIDLAND        PTCLDY    65  32  29 E9        29.99R
ODESSA         CLEAR     66  28  24 MISG      29.99S
SAN ANGELO     CLEAR     64  28  25 SE5       29.97R
WINK           CLEAR     66  27  23 SE7       29.95S
$$

TXZ055-058-074-075-080-082-250500-
FAR WEST/SOUTHWEST MOUNTAINS/TRANS PECOS

CITY           SKY/WX    TMP DP  RH WIND       PRES   REMARKS
EL PASO        PTCLDY    69  21  16 SE8       29.97R
FORT STOCKTON  CLEAR     66  26  22 S8        29.99S
GUADALUPE PASS PTCLDY    67   8  10 W12       30.10R
MARFA          CLEAR     59  16  18 N7        30.10S
PECOS          CLEAR     63  31  30 SE3       29.96S
$$

TXZ014-016-019-021>030-083-250500
TEXAS TECH WEST TEXAS MESONET/TEXAS PANHANDLE/NORTHERN SOUTH PLAINS

CITY           SKY/WX    TMP DP  RH WIND       PRES   REMARKS
ABERNATHY 5ENE   N/A     57  20  23 SE7       30.00R
AMARILLO 9NNE    N/A     55  17  22 S5        29.97R
AMARILLO 7SSE    N/A     56  18  22 SE7       30.00R
AMHERST 1NE      N/A     57  22  25 SE7       30.00R
BOOTLEG 11WNW    N/A     54  22  29 S13       30.02S
CANADIAN 6E      N/A     58  29  32 SE5       29.94S
CAPROCK CYN SP   N/A     62  21  21 S6        29.99R
CHILDRESS 2NNE   N/A     61  37  40 E8        29.96R
CLARENDON 2WSW   N/A     58  25  28 SE10      29.98R
CLAUDE 12SW      N/A     58  17  20 S6        29.99R
DIMMITT 2NE      N/A     57  24  28 SE8       30.00R
FLOYDADA 2NNE    N/A     58  16  19 SE8       30.00R
FRIONA 2NE       N/A     58  25  28 S12       30.01R
GOODLETT 3W      N/A     62  36  38 E9        29.94S
HART 3N          N/A     55  26  32 SE7       30.00S
HEREFORD 2NW     N/A     62  21  20 SE7       30.00R
MCLEAN 1E        N/A     59  23  25 SE6       29.97R
MEMPHIS 1NE      N/A     58  38  46 NE1       29.97R
MULESHOE 2SSW    N/A     52  25  35 SE8       30.00R
OLTON 6S         N/A     55  29  36 SE8       30.00R
PALO DURO SP     N/A     63  18  17 S5        30.00R
PAMPA 2E         N/A     50  24  36 SE7       29.98S
PLAINVIEW 1S     N/A     62  22  21 SE6       29.99R
SILVERTON 7ESE   N/A     56  22  26 SE10      30.00S
TULIA 2ENE       N/A     55  27  33 SE6       29.99S
TURKEY 2WSW      N/A     62  23  22 SE6       29.97R
UMBARGER 3NNE    N/A     58  19  21 S12       30.00R
$$

TXZ033>036-039>041-045>048-250500
TEXAS TECH WEST TEXAS MESONET/SOUTH PLAINS

CITY           SKY/WX    TMP DP  RH WIND       PRES   REMARKS
AIKEN 3WSW       N/A     57  28  33 SE7       30.01R
ANTON 6SSW       N/A     56  20  24 E2        30.00R
BROWNFIELD 2S    N/A     56  30  37 SE8       30.00R
DENVR CTY 7WNW   N/A     56  23  27 SE8       30.00R
GAIL 2ESE        N/A     65  23  20 E6        29.97S
LAMESA 2SE       N/A     59  26  28 SE5       30.00R
LEVELLAND 4S     N/A     58  24  27 SE8       30.00R
LUBBOCK 3WNW     N/A     64  25  22 SE6       30.00R
MORTON 1ENE      N/A     61  20  21 SE7       30.00R
ODONNELL 1N      N/A     62  19  19 SE6       30.00R
PLAINS 3N        N/A     57  23  26 SE6       30.00S
RALLS 1SE        N/A     58  18  20 SE9       30.00S
REESE CENTER     N/A     60  22  23 SE7       29.99R
SEAGRAVES 1SW    N/A     61  32  33 SE6       30.00R
SEMINOLE 2NNE    N/A     57  36  44 SE7       30.00R
SLATON 2NE       N/A     58  22  25 SE9       29.99R
SNYDER 3E        N/A     65  26  22 E10       29.98R
SUNDOWN 8SW      N/A     55  20  24 SE8       30.00R
TAHOKA 3NNE      N/A     56  19  23 SE8       29.99R
WOLFFORTH 6SSW   N/A     60  24  24 SE8       30.00R
$$

TXZ031-032-036>038-042>044-250500-
TEXAS TECH WEST TEXAS MESONET/ROLLING PLAINS

CITY           SKY/WX    TMP DP  RH WIND       PRES   REMARKS
ASPERMONT 3NE    N/A     64  37  36 E7        29.96R
FLUVANNA 3WNW    N/A     62  21  20 E8        29.98S
GRAHAM 5SSW      N/A     67  20  16 SE5       29.99R
GUTHRIE 10WSW    N/A     66  30  25 E10       29.95S
HASKELL 1NW      N/A     65  33  30 E5        29.96R
JAYTON 1SSE      N/A     62  28  27 E7        29.96S
KNOX CITY 3NW    N/A     65  36  33 E8        29.96R
LK A HENRY 1NW   N/A     63  26  25 SE2       29.96S
NORTHFIELD 1S    N/A     64  27  25 E7        29.96R
ODELL 4ENE       N/A     61  35  37 E7        29.95S
PADUCAH 10SW     N/A     62  36  37 SE5       29.96S
POST 1NE         N/A     65  24  21 S6        29.97S
RRING SPRGS 3N   N/A     63  26  24 SE6       29.98R
SEYMOUR 3NW      N/A     56  49  76 SE2       29.95S
SPUR 1W          N/A     63  23  22 SE2       29.96S
WEINERT 2NNE     N/A     64  43  46 E6        29.96S
WHITE RVR 6NE    N/A     65  21  18 E6        29.97S
$$

TXZ052-054-060>062-072-078-127-140-154-169-250500-
TEXAS TECH WEST TEXAS MESONET/PERMIAN BASIN/
CONCHO VALLEY/BIG COUNTRY/EDWARDS PLATEAU

CITY           SKY/WX    TMP DP  RH WIND       PRES   REMARKS
COYANOSA 2N      N/A     64  26  24 E8        29.96S
JUNCTION 1SSW    N/A     59  40  48 SW1       29.97R
MERTZON 3NNE     N/A     56  35  45 CALM      29.98F
SAN ANGELO 7NW   N/A     64  30  28 E2        29.98R
STRLNG CT 4WSW   N/A     56  25  29 CALM      29.99S
ST LAWRNCE 5SW   N/A     61  26  26 E7        29.99S
SWEETWATR 11SW   N/A     62  29  28 E9        30.00R
WALL 1E          N/A     62  24  23 SE8       29.98R
$$

TXZ055-058-074-075-080-082-250500-
TEXAS TECH WEST TEXAS MESONET/FAR WEST/SOUTHWEST MOUNTAINS/TRANS PECOS

CITY           SKY/WX    TMP DP  RH WIND       PRES   REMARKS
PRSMN GAP BBNP   N/A     76  19  11 N16       29.98R
$$



USA.gov is the U.S. government's official web portal to all federal, state and local government web resources and services.